Weather History for Mazar-I-Sharif, Afghanistan

Change the Weather History Date:

Tuesday, August 19, 2014

  Actual Average Record
Temperature  
Mean Temperature 88 °F -  
Max Temperature 103 °F 92 °F - ()
Min Temperature 73 °F 67 °F - ()
Cooling Degree Days 23    
Growing Degree Days 38 (Base 50)    
Moisture  
Dew Point 25 °F    
Average Humidity 8    
Maximum Humidity 20    
Minimum Humidity 4    
Precipitation  
Precipitation 0.00 in 0.00 in - ()
Sea Level Pressure  
Sea Level Pressure 29.80 in    
Wind  
Wind Speed 5 mph ()    
Max Wind Speed 11 mph    
Max Gust Speed -    
Visibility 8.4 miles    
Events      
T = Trace of Precipitation, MM = Missing Value Source: Averaged Metar Reports

Daily Weather History Graph

Daily Weather History Graph

Search for Another Location

Airport:

Trip Planner

Search our weather history database for the weather conditions in past years. The results will help you decide how hot, cold, wet, or windy it might be!

Date:

Astronomy

Aug. 19, 2014 Rise Set
Actual Time 5:21 AM AFT 6:47 PM AFT
Civil Twilight 4:54 AM AFT 7:14 PM AFT
Nautical Twilight 4:21 AM AFT 7:47 PM AFT
Astronomical Twilight 3:47 AM AFT 8:21 PM AFT
Moon No Moon Rise 2:18 PM AFT (8/19)
Length of Visible Light 14h 20m
Length of Day
13h 26m
Waning Crescent, 32% of the Moon is Illuminated
Aug 19
Waning Crescent
Aug 25
New
Sep 2
First Quarter
Sep 9
Full
Sep 16
Last Quarter

Hourly Weather History & Observations

Time (AFT) Temp. Dew Point Humidity Pressure Visibility Wind Dir Wind Speed Gust Speed Precip Events Conditions
12:20 AM 84.2 °F 30.2 °F 14% 29.83 in 6.2 mi South 5.8 mph - N/A   Clear
12:30 AM 83 °F 29 °F 7% 29.76 in 12 mi South 6.7 mph - -  
1:20 AM 80.6 °F 30.2 °F 16% 29.83 in 6.2 mi SE 3.5 mph - N/A   Clear
1:30 AM 81 °F 30 °F 8% 29.77 in 12 mi SE 4.5 mph - -  
2:20 AM 73.4 °F 30.2 °F 20% 29.83 in 6.2 mi Variable 1.2 mph - N/A   Clear
2:30 AM 74 °F 30 °F 11% 29.79 in 12 mi 2.2 mph - -  
3:20 AM 77.0 °F 28.4 °F 17% 29.83 in 6.2 mi SSE 2.3 mph - N/A   Clear
3:30 AM 77 °F 29 °F 9% 29.78 in 12 mi SSE 2.2 mph - -  
4:20 AM 77.0 °F 28.4 °F 17% 29.83 in 6.2 mi Variable 1.2 mph - N/A   Clear
4:30 AM 77 °F 29 °F 9%  in 12 mi 2.2 mph - -  
5:20 AM 73.4 °F 30.2 °F 20% 29.86 in 6.2 mi NNE 5.8 mph - N/A   Clear
5:30 AM 74 °F 30 °F 11% 29.81 in 12 mi NNE 6.7 mph - -  
6:20 AM 75.2 °F 30.2 °F 19% 29.86 in 6.2 mi NE 5.8 mph - N/A   Clear
6:30 AM 75 °F 30 °F 10% 29.83 in 6 mi NE 6.7 mph - -  
7:30 AM 80 °F 33 °F 10%  in 6 mi NE 2.2 mph - -  
8:20 AM 86.0 °F 28.4 °F 12% 29.89 in 5.0 mi NE 4.6 mph - N/A   Clear
8:30 AM 86 °F 29 °F 6% 29.82 in 5 mi NE 4.5 mph - -  
9:20 AM 91.4 °F 24.8 °F 9% 29.89 in 6.2 mi NNE 6.9 mph - N/A   Clear
9:30 AM 91 °F 26 °F 4% 29.81 in 6 mi NNE 6.7 mph - -  
10:20 AM 93.2 °F 23.0 °F 8% 29.89 in 6.2 mi NNE 5.8 mph - N/A   Clear
10:30 AM 93 °F 24 °F 4% 29.80 in 7 mi NNE 6.7 mph - -  
11:20 AM 96.8 °F 23.0 °F 7% 29.89 in 6.2 mi NNE 8.1 mph - N/A   Clear
11:30 AM 96 °F 23 °F 4% 29.78 in 9 mi NNE 8.9 mph - -  
12:20 PM 100.4 °F 21.2 °F 6% 29.86 in 6.2 mi NE 10.4 mph - N/A   Clear
12:30 PM 100 °F 22 °F 4% 29.75 in 12 mi NE 11.2 mph - -  
1:20 PM 98.6 °F 19.4 °F 6% 29.83 in 6.2 mi NNE 9.2 mph - N/A   Clear
1:30 PM 99 °F 20 °F 4%  in 12 mi NNE 8.9 mph - -  
2:20 PM 100.4 °F 17.6 °F 5% 29.80 in 6.2 mi NNE 4.6 mph - N/A   Partly Cloudy
2:30 PM 101 °F 18 °F 4% 29.70 in 12 mi NNE 4.5 mph - -   Scattered Clouds
3:20 PM 102.2 °F 19.4 °F 5% 29.80 in 6.2 mi ENE 3.5 mph - N/A   Partly Cloudy
3:30 PM 102 °F 19 °F 4% 29.68 in 12 mi ENE 4.5 mph - -   Clear
4:20 PM 102.2 °F 17.6 °F 5% 29.77 in 6.2 mi NNE 8.1 mph - N/A   Partly Cloudy
4:30 PM 102 °F 18 °F 4% 29.67 in 12 mi NNE 8.9 mph - -   Clear
5:20 PM 100.4 °F 17.6 °F 5% 29.77 in 6.2 mi SE 3.5 mph - N/A   Partly Cloudy
5:30 PM 101 °F 18 °F 4% 29.67 in 12 mi SE 4.5 mph - -   Clear
6:20 PM 98.6 °F 19.4 °F 6% 29.77 in 6.2 mi North 2.3 mph - N/A   Clear
6:30 PM 99 °F 19 °F 4% 29.68 in 12 mi North 2.2 mph - -  
7:20 PM 93.2 °F 32.0 °F 11% 29.80 in 6.2 mi SW 6.9 mph - N/A   Clear
7:30 PM 94 °F 32 °F 5%  in 12 mi SW 6.7 mph - -  
8:20 PM 91.4 °F 26.6 °F 10% 29.80 in 6.2 mi SW 6.9 mph - N/A   Clear
8:30 PM 91 °F 27 °F 4% 29.72 in 12 mi SW 6.7 mph - -  
9:20 PM 91.4 °F 21.2 °F 8% 29.83 in 6.2 mi SSW 6.9 mph - N/A   Clear
10:20 PM 91.4 °F 19.4 °F 7% 29.83 in 6.2 mi SSW 5.8 mph - N/A   Clear
10:30 PM 91 °F 20 °F 4% 29.73 in 12 mi SSW 6.7 mph - -  
11:20 PM 89.6 °F 21.2 °F 8% 29.83 in 6.2 mi SW 5.8 mph - N/A   Clear
11:30 PM 90 °F 20 °F 4% 29.73 in 12 mi SW 6.7 mph - -